Voltar ao catálogo

FENGYUN 1C DEB

AtivoSSO
NORAD 35175·DEBRIS·🇨🇳 China

Lançado May 10, 1999 de Taiyuan Satellite Launch Center

Loading…

Próximas Passagens (próximas 24 horas)

TLE

AtualizadoSource: Space-Track

Época: Sep 11, 2026, 18:32 UTC

1 35175U 99025DNF 26254.77271946  .00000362  00000-0  18140-3 0  9996
2 35175  98.5746 260.3396 0057197 207.0097 152.8101 14.21679956651140

Acompanhe FENGYUN 1C DEB em tempo real com AllMySat

Download on the App Store